Cloud_Cover
100 100 100 100 100 100 100 100 100 81 20 100 5 19 92 8 5 35 6 62 71 31 6 8 100 100 89 100 100 89 8 5 5 6 5 100 99 5 1 4 1 0 1 43 5 0 2 2 0
91 100 100 100 100 100 100 91 100 17 87 10 35 24 5 54 5 55 26 76 99 100 84 77 100 100 100 100 100 96 5 71 40 82 99 90 7 17 0 1 2 6 6 55 100 2 2 0 0
100 100 96 100 100 68 55 61 99 77 67 9 4 5 5 5 20 69 5 38 40 89 100 100 100 100 100 100 47 5 49 98 100 85 100 95 5 5 5 5 6 16 67 99 49 0 0 0 4
100 100 100 99 28 100 37 100 100 15 86 6 5 2 0 5 44 51 89 78 78 5 28 8 15 100 84 100 38 30 42 100 100 100 100 5 0 61 100 100 82 15 6 81 0 0 0 7 5
100 100 100 100 74 86 94 44 5 14 5 0 0 0 5 2 0 51 6 5 5 5 5 5 64 16 5 55 13 77 82 91 87 4 2 8 5 4 0 0 0 0 0 0 0 0 2 5 2
100 100 99 75 57 57 66 62 9 0 1 0 0 0 14 0 0 4 4 11 12 5 16 100 56 22 31 98 100 38 70 64 54 3 0 0 0 0 0 0 0 0 0 0 0 0 0 0 2
94 100 100 94 38 100 82 86 100 100 0 0 0 0 23 97 5 42 11 12 7 38 20 5 20 97 100 90 18 6 18 0 0 0 0 0 0 0 0 0 0 0 0 0 0 0 5 5 1
10 88 4 99 75 77 33 98 99 0 0 0 0 0 80 41 0 9 11 0 5 5 5 5 79 99 63 63 84 82 0 0 0 0 0 0 0 0 0 0 0 0 0 0 0 0 0 0 0
48 82 97 25 1 79 98 34 90 80 0 0 0 0 0 100 1 96 14 33 5 8 5 5 9 5 76 91 41 0 0 0 0 0 0 0 0 0 0 0 0 0 0 41 90 4 3 1 5
17 21 100 91 1 74 36 0 19 35 80 100 0 0 19 7 0 0 87 5 12 2 5 5 5 5 21 0 41 82 0 0 0 0 0 0 0 0 0 0 0 0 52 38 70 17 2 3 29
88 100 91 30 30 16 5 6 0 43 9 5 0 0 0 0 0 0 1 3 2 0 0 1 0 0 0 1 5 68 12 48 15 31 0 11 0 0 0 0 0 41 0 2 100 100 100 100 100
38 58 16 54 92 2 3 4 16 0 0 0 0 0 0 0 0 0 0 0 81 0 0 0 0 53 0 5 81 29 4 54 91 18 100 100 65 80 0 42 100 89 4 31 100 100 100 100 100
100 45 53 95 65 12 100 66 100 9 0 0 0 0 0 0 0 2 3 0 0 6 3 0 16 82 0 95 29 0 0 49 92 4 61 100 1 92 1 14 95 49 93 91 100 100 100 100 100
100 92 22 0 41 90 25 86 99 84 0 0 2 0 5 18 6 52 100 72 5 3 37 0 59 0 0 0 14 1 0 0 95 12 2 0 22 20 0 0 1 1 16 100 100 100 100 100 100
100 100 11 27 40 32 52 57 58 7 1 0 0 30 50 46 3 0 1 0 4 4 5 4 3 5 0 0 0 0 0 0 0 4 0 0 0 0 70 21 59 30 1 66 100 100 100 100 100
100 100 88 100 90 77 24 23 8 5 33 5 3 27 100 100 1 96 28 1 2 2 4 5 2 5 0 0 0 0 1 0 0 0 0 0 0 0 10 0 2 91 0 1 38 96 100 100 100
100 100 100 100 100 92 90 25 0 4 5 5 9 98 100 6 94 62 55 38 0 0 4 4 2 3 2 2 0 0 0 1 0 1 0 0 0 0 0 0 0 0 0 0 0 0 87 100 100
100 100 100 100 100 100 100 63 4 1 29 16 18 57 2 3 10 40 3 0 0 0 0 0 5 5 5 5 0 0 0 27 84 79 4 3 0 0 0 0 0 0 0 0 0 0 0 22 11
100 100 100 100 100 100 100 100 100 100 100 100 100 99 76 11 18 5 5 5 0 0 8 73 0 0 5 5 0 0 24 18 22 9 45 100 0 0 0 0 0 18 14 11 0 0 0 0 0
100 100 100 100 100 100 100 100 100 100 100 100 100 100 100 100 88 93 58 5 5 15 93 5 0 0 0 32 95 34 55 22 67 96 87 68 7 35 10 24 75 39 35 0 3 0 0 0 0
100 100 100 100 100 100 100 100 100 100 100 100 100 99 100 100 84 80 32 5 5 32 14 25 11 5 45 100 100 100 100 95 15 91 97 87 98 100 100 100 100 100 91 1 0 58 99 3 0
98 100 92 100 100 100 100 100 100 100 100 100 81 100 100 97 100 87 100 95 82 92 2 1 13 3 1 98 100 100 100 100 93 77 100 100 100 100 100 100 100 100 100 100 54 5 85 2 0
100 100 92 96 67 100 66 47 81 100 100 100 100 96 100 100 87 40 63 86 5 11 0 0 0 0 8 100 100 100 100 100 100 100 21 99 100 100 100 100 100 100 100 100 100 96 96 12 1
4 13 2 27 96 100 95 71 63 100 100 100 99 94 100 100 100 100 98 100 32 79 5 5 96 100 100 5 98 100 100 100 100 100 77 30 99 100 100 100 100 100 100 100 100 100 100 96 22
0 0 0 0 0 18 99 44 71 100 100 100 100 75 100 100 100 100 100 100 100 40 62 28 100 100 18 4 24 59 100 100 100 99 81 84 63 98 100 100 100 100 100 44 99 98 100 100 100
0 2 28 2 22 92 71 76 50 80 40 63 100 100 100 100 100 100 100 100 45 85 11 2 58 48 49 6 4 39 100 99 90 94 98 98 78 100 100 82 100 100 100 100 100 100 70 73 22
0 0 1 0 0 91 100 18 5 92 77 42 5 78 100 100 97 100 100 100 100 98 8 4 11 44 40 10 94 6 74 91 100 100 99 82 74 89 79 69 100 100 100 92 100 98 95 100 84
0 1 4 4 4 86 99 18 5 67 2 4 3 3 39 90 96 35 63 52 42 86 99 97 100 99 58 5 5 22 5 4 16 75 34 38 64 98 100 62 77 91 100 100 100 84 74 44 6
2 5 0 0 2 13 79 100 72 2 7 91 97 89 89 92 49 11 1 5 18 32 100 94 100 100 96 81 24 19 50 72 87 32 34 77 17 93 96 75 68 80 56 100 100 76 29 11 69
0 0 4 2 5 36 5 28 11 85 98 61 100 100 100 97 79 84 44 25 25 25 64 59 23 95 90 95 97 100 100 80 96 65 98 96 100 81 98 100 58 99 100 77 100 100 5 39 99